FW5459 Weather Reports


time (UTC)temp
C
wind
direction
speed
KPH
gust
KPH
rain 1hr
cm
rain 24hr
cm
rain mn
cm
humidity
%
barometer
mb
20260506103016 12 0.0 0.0 0.00 0.00 0.00 92 1019.1
20260506102016 12 0.0 0.0 0.00 0.00 0.00 92 1019.1
20260506101016 12 0.0 0.0 0.00 0.00 0.00 93 1019.1
20260506100016 12 0.0 0.0 0.00 0.00 0.00 93 1019.0
20260506095016 12 0.0 0.0 0.00 0.00 0.00 93 1019.0
20260506094016 12 0.0 0.0 0.00 0.00 0.00 92 1019.0
20260506093056 12 0.0 1.6 0.00 0.00 0.00 92 1019.0
20260506092016 12 0.0 0.0 0.00 0.00 0.00 92 1019.1
20260506091015 12 0.0 0.0 0.00 0.00 0.00 92 1019.0
20260506090036 12 0.0 1.6 0.00 0.00 0.00 92 1018.9
20260506085036 12 0.0 0.0 0.00 0.00 0.00 92 1018.9
20260506084015 12 0.0 0.0 0.00 0.00 0.00 92 1019.0
20260506083017 12 0.0 0.0 0.00 0.00 0.00 92 1019.0
20260506082116 12 0.0 0.0 0.00 0.00 0.00 91 1019.0
20260506081015 12 0.0 0.0 0.00 0.00 0.00 91 1018.9
20260506073015 12 0.0 0.0 0.00 0.03 0.00 90 1018.7
20260506072016 12 0.0 1.6 0.00 0.05 0.00 90 1018.7
20260506071015 12 0.0 1.6 0.00 0.08 0.00 89 1018.6
20260506062017 13 0.0 3.2 0.00 0.13 0.10 88 1018.1
20260506061017 13 225 1.6 4.8 0.00 0.18 0.10 88 1018.1
20260506051017 13 0.0 0.0 0.00 0.38 0.10 87 1017.3
20260506045017 13 0.0 0.0 0.00 0.41 0.10 87 1017.3
20260506044017 13 0.0 0.0 0.00 0.41 0.10 86 1017.2
20260506043017 13 0.0 1.6 0.00 0.41 0.10 87 1017.1
20260506042017 13 0.0 0.0 0.00 0.43 0.10 86 1016.9
20260506041017 13 0.0 0.0 0.00 0.46 0.10 86 1016.7
20260506040017 13 0.0 1.6 0.00 0.51 0.10 86 1016.6
20260506035017 13 0.0 0.0 0.00 0.56 0.10 86 1016.7
20260506034017 13 0.0 0.0 0.00 0.64 0.10 86 1016.7
20260506033017 13 0.0 3.2 0.00 0.69 0.10 86 1016.5
20260506032016 13 0.0 1.6 0.00 0.74 0.10 86 1016.4
20260506031017 13 0.0 0.0 0.00 0.81 0.10 86 1016.2
20260506030017 14 0.0 1.6 0.00 0.89 0.10 86 1016.0
20260506025017 14 0.0 0.0 0.00 0.97 0.10 85 1016.0
20260506024016 14 0.0 1.6 0.00 1.04 0.10 84 1015.9
20260506023037 14 0.0 1.6 0.00 1.09 0.10 84 1015.8
20260506022017 14 0.0 3.2 0.00 1.12 0.10 83 1015.8
20260506021017 15 0.0 3.2 0.00 1.14 0.10 83 1015.5
20260506020017 15 0.0 4.8 0.00 1.17 0.10 82 1015.6
20260506015017 15 0.0 3.2 0.00 1.19 0.10 82 1015.6
20260506014017 15 0.0 1.6 0.00 1.24 0.10 83 1015.7
20260506013017 15 0.0 1.6 0.00 1.27 0.10 82 1015.7
20260506012017 15 0.0 1.6 0.00 1.35 0.10 83 1015.6
20260506011017 15 0.0 3.2 0.00 1.37 0.10 81 1015.6
20260506010016 15 0.0 3.2 0.00 1.40 0.10 82 1015.6
20260506005017 15 0.0 3.2 0.00 1.42 0.10 81 1015.5
20260506004016 15 0.0 3.2 0.00 1.47 0.10 82 1015.4
20260506003017 15 0.0 1.6 0.00 1.50 0.10 82 1015.4
20260506002017 15 0.0 1.6 0.00 1.52 0.10 81 1015.5
20260506001036 15 0.0 0.0 0.00 1.55 0.10 82 1015.4
20260506000017 15 0.0 1.6 0.00 1.57 0.10 81 1015.4
20260505235016 15 0.0 0.0 0.00 1.63 0.10 81 1015.4
20260505234016 15 0.0 1.6 0.00 1.70 0.10 81 1015.3
20260505233016 15 0.0 0.0 0.00 1.75 0.10 81 1015.4
20260505232017 15 0.0 1.6 0.00 1.83 0.10 80 1015.3
20260505231016 15 0.0 0.0 0.00 1.88 0.10 81 1015.4
20260505230016 15 0.0 0.0 0.00 1.96 0.10 82 1015.4
20260505225017 15 248 1.6 4.8 0.00 2.01 0.10 80 1015.3
20260505224017 15 225 1.6 6.4 0.00 2.03 0.10 81 1015.4
20260505223036 15 248 1.6 6.4 0.00 2.03 0.10 80 1015.5
20260505222016 15 0.0 1.6 0.00 2.06 0.10 81 1015.6
20260505221017 15 248 1.6 8.0 0.00 2.06 0.10 80 1015.6
20260505220036 15 225 1.6 4.8 0.00 2.08 0.10 79 1015.6
20260505215017 15 225 1.6 6.4 0.00 2.11 0.10 77 1015.7
20260505214037 16 0.0 1.6 0.00 2.13 0.10 79 1015.9
20260505213016 16 0.0 4.8 0.00 2.16 0.10 80 1015.8
20260505212016 16 0.0 3.2 0.00 2.18 0.10 79 1015.8
20260505211016 15 225 1.6 8.0 0.00 2.18 0.10 79 1015.9
20260505210016 15 225 1.6 4.8 0.00 2.18 0.10 81 1015.7
20260505205016 15 225 1.6 6.4 0.00 2.21 0.10 82 1015.7
20260505204016 15 180 1.6 4.8 0.00 2.21 0.10 83 1015.8
20260505203016 14 225 1.6 8.0 0.00 2.21 0.10 83 1015.7
20260505202016 14 225 1.6 8.0 0.00 2.21 0.10 83 1015.7
20260505201037 13 225 1.6 6.4 0.00 2.21 0.10 85 1015.7
20260505200017 13 0.0 3.2 0.00 2.21 0.10 86 1015.8
20260505195036 13 248 1.6 4.8 0.00 2.21 0.10 85 1015.9
20260505194016 13 248 1.6 3.2 0.00 2.21 0.10 86 1015.9
20260505193016 13 225 1.6 4.8 0.00 2.24 0.10 85 1015.9
20260505192016 13 225 1.6 6.4 0.00 2.26 0.10 85 1015.8
20260505191016 13 225 1.6 4.8 0.00 2.29 0.10 85 1015.8
20260505190016 13 0.0 3.2 0.00 2.31 0.10 87 1015.9
20260505185016 13 0.0 1.6 0.00 2.31 0.10 87 1015.8
20260505184021 13 225 1.6 4.8 0.00 2.34 0.10 88 1015.7
20260505183016 13 225 1.6 6.4 0.00 2.34 0.10 88 1015.6
20260505182016 13 225 1.6 9.7 0.00 2.34 0.10 87 1015.6
20260505181036 13 225 1.6 6.4 0.00 2.34 0.10 89 1015.6
20260505180016 13 0.0 3.2 0.00 2.34 0.10 89 1015.5
20260505175016 13 0.0 1.6 0.00 2.34 0.10 93 1015.4
20260505174016 12 0.0 3.2 0.00 2.34 0.10 95 1015.2
20260505173016 12 0.0 1.6 0.00 2.34 0.10 97 1015.1
20260505172016 12 0.0 1.6 0.00 2.34 0.10 97 1015.2
20260505171016 11 0.0 4.8 0.00 2.34 0.10 96 1015.2
20260505170016 11 0.0 1.6 0.00 2.39 0.10 96 1015.2
20260505165016 11 0.0 1.6 0.00 2.44 0.10 97 1015.2
20260505164016 11 0.0 3.2 0.00 2.44 0.10 96 1015.2
20260505163016 11 0.0 3.2 0.00 2.44 0.10 96 1015.1
20260505162016 11 0.0 3.2 0.00 2.44 0.10 97 1015.1
20260505161016 10 0.0 1.6 0.00 2.44 0.10 97 1015.0
20260505153016 10 158 1.6 6.4 0.00 2.44 0.10 97 1014.8
20260505152016 10 0.0 3.2 0.00 2.44 0.10 97 1014.7
20260505151016 10 0.0 3.2 0.00 2.44 0.10 97 1014.8
20260505125016 9 0.0 1.6 0.00 2.44 0.10 96 1013.9
20260505124036 9 0.0 0.0 0.00 2.44 0.10 97 1013.8
20260505123016 10 0.0 1.6 0.00 2.44 0.10 97 1013.8
20260505122036 10 0.0 1.6 0.00 2.44 0.10 96 1013.8
20260505121016 10 0.0 0.0 0.00 2.44 0.10 97 1013.8
20260505120016 10 0.0 0.0 0.00 2.44 0.10 96 1013.7
20260505115016 10 0.0 1.6 0.00 2.44 0.10 96 1013.9
20260505114036 10 0.0 1.6 0.00 2.44 0.10 97 1013.9
20260505113016 10 0.0 0.0 0.00 2.44 0.10 97 1013.9
20260505112015 10 0.0 0.0 0.00 2.44 0.10 96 1013.9
20260505111016 10 0.0 3.2 0.00 2.44 0.10 96 1014.0